Time,TemperatureF,DewpointF,PressureIn,WindDirection,WindDirectionDegrees,WindSpeedMPH,WindSpeedGustMPH,Humidity,HourlyPrecipIn,Conditions,Clouds,dailyrainin,SoftwareType,DateUTC
2013-05-08 00:02:00,63.0,55.0,-100.00,SSW,200,3.0,6.0,75,0.00,,,-99.99,,2013-05-08 04:02:00,
2013-05-08 00:13:00,62.0,55.0,-100.00,South,190,2.0,4.0,76,0.00,,,-99.99,,2013-05-08 04:13:00,
2013-05-08 00:23:00,62.0,55.0,-100.00,SW,215,2.0,5.0,77,0.00,,,-99.99,,2013-05-08 04:23:00,
2013-05-08 00:33:00,62.0,55.0,-100.00,SSW,210,2.0,4.0,78,0.00,,,-99.99,,2013-05-08 04:33:00,
2013-05-08 00:43:00,62.0,55.0,-100.00,South,175,2.0,4.0,80,0.00,,,-99.99,,2013-05-08 04:43:00,
2013-05-08 00:52:00,61.0,55.0,-100.00,South,190,2.0,4.0,80,0.00,,,-99.99,,2013-05-08 04:52:00,
2013-05-08 01:02:00,60.0,55.0,-100.00,South,185,2.0,3.0,82,0.00,,,-99.99,,2013-05-08 05:02:00,
2013-05-08 01:12:00,60.0,55.0,-100.00,South,190,1.0,3.0,83,0.00,,,-99.99,,2013-05-08 05:12:00,
2013-05-08 01:22:00,59.0,54.0,-100.00,South,170,0.0,2.0,84,0.00,,,-99.99,,2013-05-08 05:22:00,
2013-05-08 01:32:00,58.0,54.0,-100.00,ENE,70,0.0,2.0,85,0.00,,,-99.99,,2013-05-08 05:32:00,
2013-05-08 01:42:00,58.0,54.0,-100.00,South,170,0.0,1.0,86,0.00,,,-99.99,,2013-05-08 05:42:00,
2013-05-08 01:52:00,58.0,54.0,-100.00,South,185,1.0,1.0,88,0.00,,,-99.99,,2013-05-08 05:52:00,
2013-05-08 02:02:00,57.0,54.0,-100.00,West,260,0.0,2.0,88,0.00,,,-99.99,,2013-05-08 06:02:00,
2013-05-08 02:12:00,57.0,54.0,-100.00,North,10,0.0,1.0,89,0.00,,,-99.99,,2013-05-08 06:12:00,
2013-05-08 02:22:00,56.0,54.0,-100.00,ENE,60,0.0,1.0,90,0.00,,,-99.99,,2013-05-08 06:22:00,
2013-05-08 02:32:00,56.0,54.0,-100.00,SSW,210,0.0,1.0,91,0.00,,,-99.99,,2013-05-08 06:32:00,
2013-05-08 02:42:00,56.0,53.0,-100.00,SW,225,0.0,1.0,91,0.00,,,-99.99,,2013-05-08 06:42:00,
2013-05-08 02:52:00,55.0,53.0,-100.00,South,180,1.0,1.0,92,0.00,,,-99.99,,2013-05-08 06:52:00,
2013-05-08 03:02:00,55.0,53.0,-100.00,NNW,345,0.0,1.0,92,0.00,,,-99.99,,2013-05-08 07:02:00,
2013-05-08 03:11:00,55.0,53.0,-100.00,ENE,70,0.0,0.0,93,0.00,,,-99.99,,2013-05-08 07:11:00,
2013-05-08 03:22:00,55.0,53.0,-100.00,South,180,0.0,1.0,93,0.00,,,-99.99,,2013-05-08 07:22:00,
2013-05-08 03:32:00,54.0,53.0,-100.00,South,180,0.0,2.0,93,0.00,,,-99.99,,2013-05-08 07:32:00,
2013-05-08 03:42:00,54.0,53.0,-100.00,SSW,195,0.0,2.0,94,0.00,,,-99.99,,2013-05-08 07:42:00,
2013-05-08 03:52:00,54.0,52.0,-100.00,SSW,210,0.0,1.0,94,0.00,,,-99.99,,2013-05-08 07:52:00,
2013-05-08 04:02:00,54.0,52.0,-100.00,NW,315,1.0,2.0,94,0.00,,,-99.99,,2013-05-08 08:02:00,
2013-05-08 04:12:00,53.0,52.0,-100.00,South,190,1.0,1.0,94,0.00,,,-99.99,,2013-05-08 08:12:00,
2013-05-08 04:22:00,53.0,52.0,-100.00,West,260,0.0,1.0,95,0.00,,,-99.99,,2013-05-08 08:22:00,
2013-05-08 04:32:00,53.0,52.0,-100.00,South,190,0.0,1.0,95,0.00,,,-99.99,,2013-05-08 08:32:00,
2013-05-08 04:42:00,53.0,52.0,-100.00,West,270,1.0,1.0,95,0.00,,,-99.99,,2013-05-08 08:42:00,
2013-05-08 04:52:00,53.0,52.0,-100.00,SSE,150,0.0,2.0,95,0.00,,,-99.99,,2013-05-08 08:52:00,
2013-05-08 05:02:00,53.0,51.0,-100.00,ENE,60,1.0,1.0,95,0.00,,,-99.99,,2013-05-08 09:02:00,
2013-05-08 05:11:00,52.0,51.0,-100.00,NE,55,0.0,1.0,95,0.00,,,-99.99,,2013-05-08 09:11:00,
2013-05-08 05:22:00,52.0,51.0,-100.00,NNE,30,0.0,1.0,96,0.00,,,-99.99,,2013-05-08 09:22:00,
2013-05-08 05:32:00,52.0,51.0,-100.00,East,80,0.0,1.0,96,0.00,,,-99.99,,2013-05-08 09:32:00,
2013-05-08 05:42:00,52.0,51.0,-100.00,NW,315,0.0,1.0,96,0.00,,,-99.99,,2013-05-08 09:42:00,
2013-05-08 05:53:00,52.0,51.0,-100.00,ENE,60,0.0,1.0,96,0.00,,,-99.99,,2013-05-08 09:53:00,
2013-05-08 06:02:00,52.0,51.0,-100.00,East,100,0.0,1.0,96,0.00,,,-99.99,,2013-05-08 10:02:00,
2013-05-08 06:12:00,52.0,51.0,-100.00,East,90,1.0,1.0,96,0.00,,,-99.99,,2013-05-08 10:12:00,
2013-05-08 06:23:00,53.0,52.0,-100.00,South,180,0.0,2.0,97,0.00,,,-99.99,,2013-05-08 10:23:00,
2013-05-08 06:33:00,53.0,52.0,-100.00,East,80,1.0,1.0,97,0.00,,,-99.99,,2013-05-08 10:33:00,
2013-05-08 06:42:00,54.0,53.0,-100.00,East,90,1.0,1.0,97,0.00,,,-99.99,,2013-05-08 10:42:00,
2013-05-08 06:52:00,54.0,53.0,-100.00,East,90,0.0,2.0,97,0.00,,,-99.99,,2013-05-08 10:52:00,
2013-05-08 07:02:00,55.0,54.0,-100.00,ESE,110,1.0,4.0,97,0.00,,,-99.99,,2013-05-08 11:02:00,
2013-05-08 07:12:00,56.0,55.0,-100.00,NE,45,1.0,3.0,97,0.00,,,-99.99,,2013-05-08 11:12:00,
2013-05-08 07:22:00,56.0,55.0,-100.00,NE,45,0.0,2.0,97,0.00,,,-99.99,,2013-05-08 11:22:00,
2013-05-08 07:32:00,57.0,57.0,-100.00,East,90,1.0,4.0,97,0.00,,,-99.99,,2013-05-08 11:32:00,
2013-05-08 07:42:00,58.0,57.0,-100.00,East,80,1.0,2.0,97,0.00,,,-99.99,,2013-05-08 11:42:00,
2013-05-08 07:52:00,59.0,58.0,-100.00,East,80,0.0,2.0,96,0.00,,,-99.99,,2013-05-08 11:52:00,
2013-05-08 08:02:00,60.0,59.0,-100.00,South,180,1.0,4.0,95,0.00,,,-99.99,,2013-05-08 12:02:00,
2013-05-08 08:11:00,62.0,59.0,-100.00,East,90,2.0,6.0,92,0.00,,,-99.99,,2013-05-08 12:11:00,
2013-05-08 08:22:00,62.0,58.0,-100.00,South,170,2.0,7.0,86,0.00,,,-99.99,,2013-05-08 12:22:00,
2013-05-08 08:32:00,63.0,58.0,-100.00,South,170,2.0,5.0,83,0.00,,,-99.99,,2013-05-08 12:32:00,
2013-05-08 08:42:00,64.0,58.0,-100.00,East,90,1.0,4.0,80,0.00,,,-99.99,,2013-05-08 12:42:00,
2013-05-08 08:52:00,64.0,58.0,-100.00,South,180,2.0,4.0,78,0.00,,,-99.99,,2013-05-08 12:52:00,
2013-05-08 09:01:00,65.0,58.0,-100.00,SSE,155,2.0,4.0,77,0.00,,,-99.99,,2013-05-08 13:01:00,
2013-05-08 09:12:00,66.0,58.0,-100.00,East,90,1.0,5.0,75,0.00,,,-99.99,,2013-05-08 13:12:00,
2013-05-08 09:21:00,66.0,58.0,-100.00,East,90,1.0,5.0,75,0.00,,,-99.99,,2013-05-08 13:21:00,
2013-05-08 09:32:00,67.0,59.0,-100.00,East,90,1.0,6.0,74,0.00,,,-99.99,,2013-05-08 13:32:00,
2013-05-08 09:42:00,68.0,59.0,-100.00,East,90,4.0,9.0,71,0.00,,,-99.99,,2013-05-08 13:42:00,
2013-05-08 09:52:00,68.0,58.0,-100.00,SSW,195,4.0,9.0,70,0.00,,,-99.99,,2013-05-08 13:52:00,
2013-05-08 10:02:00,70.0,59.0,-100.00,South,175,5.0,9.0,69,0.00,,,-99.99,,2013-05-08 14:02:00,
2013-05-08 10:12:00,70.0,59.0,-100.00,East,90,1.0,7.0,69,0.00,,,-99.99,,2013-05-08 14:12:00,
2013-05-08 10:22:00,70.0,59.0,-100.00,ESE,105,4.0,8.0,68,0.00,,,-99.99,,2013-05-08 14:22:00,
2013-05-08 10:32:00,71.0,60.0,-100.00,East,80,2.0,11.0,68,0.00,,,-99.99,,2013-05-08 14:32:00,
2013-05-08 10:42:00,72.0,60.0,-100.00,SSW,200,6.0,12.0,66,0.00,,,-99.99,,2013-05-08 14:42:00,
2013-05-08 10:52:00,72.0,59.0,-100.00,South,190,11.0,15.0,64,0.00,,,-99.99,,2013-05-08 14:52:00,
2013-05-08 11:02:00,73.0,59.0,-100.00,South,185,7.0,18.0,62,0.00,,,-99.99,,2013-05-08 15:02:00,
2013-05-08 11:11:00,72.0,60.0,-100.00,South,190,12.0,19.0,64,0.00,,,-99.99,,2013-05-08 15:11:00,
2013-05-08 11:22:00,72.0,59.0,-100.00,SSW,195,11.0,17.0,64,0.00,,,-99.99,,2013-05-08 15:22:00,
2013-05-08 11:33:00,72.0,60.0,-100.00,SSW,195,7.0,16.0,64,0.00,,,-99.99,,2013-05-08 15:33:00,
2013-05-08 11:42:00,72.0,60.0,-100.00,South,185,11.0,18.0,64,0.00,,,-99.99,,2013-05-08 15:42:00,
2013-05-08 11:52:00,72.0,59.0,-100.00,South,185,10.0,17.0,62,0.00,,,-99.99,,2013-05-08 15:52:00,
2013-05-08 12:03:00,72.0,59.0,-100.00,South,185,9.0,21.0,63,0.00,,,-99.99,,2013-05-08 16:03:00,
2013-05-08 12:13:00,73.0,58.0,-100.00,South,190,13.0,21.0,59,0.00,,,-99.99,,2013-05-08 16:13:00,
2013-05-08 12:23:00,74.0,57.0,-100.00,South,180,12.0,22.0,56,0.00,,,-99.99,,2013-05-08 16:23:00,
2013-05-08 12:33:00,74.0,58.0,-100.00,South,190,9.0,22.0,56,0.00,,,-99.99,,2013-05-08 16:33:00,
2013-05-08 12:40:00,72.0,56.0,-100.00,South,190,13.0,29.0,57,0.00,,,-99.99,,2013-05-08 16:40:00,
2013-05-08 12:42:00,74.0,57.0,-100.00,SSW,195,9.0,21.0,56,0.00,,,-99.99,,2013-05-08 16:42:00,
2013-05-08 12:52:00,74.0,58.0,-100.00,South,190,7.0,26.0,57,0.00,,,-99.99,,2013-05-08 16:52:00,
2013-05-08 13:02:00,73.0,57.0,-100.00,South,185,12.0,24.0,58,0.00,,,-99.99,,2013-05-08 17:02:00,
2013-05-08 13:12:00,73.0,57.0,-100.00,South,185,13.0,21.0,57,0.00,,,-99.99,,2013-05-08 17:12:00,
2013-05-08 13:22:00,72.0,55.0,-100.00,South,185,19.0,29.0,54,0.00,,,-99.99,,2013-05-08 17:22:00,
2013-05-08 13:32:00,72.0,56.0,-100.00,South,190,13.0,29.0,57,0.00,,,-99.99,,2013-05-08 17:32:00,
2013-05-08 13:52:00,71.0,59.0,-100.00,South,190,10.0,17.0,64,0.00,,,-99.99,,2013-05-08 17:52:00,
2013-05-08 14:02:00,71.0,59.0,-100.00,South,190,12.0,19.0,65,0.00,,,-99.99,,2013-05-08 18:02:00,
2013-05-08 14:12:00,72.0,59.0,-100.00,South,190,6.0,20.0,63,0.00,,,-99.99,,2013-05-08 18:12:00,
2013-05-08 14:22:00,72.0,59.0,-100.00,South,190,9.0,19.0,62,0.00,,,-99.99,,2013-05-08 18:22:00,
2013-05-08 14:32:00,72.0,58.0,-100.00,South,190,12.0,24.0,61,0.00,,,-99.99,,2013-05-08 18:32:00,
2013-05-08 14:42:00,72.0,58.0,-100.00,South,190,16.0,22.0,61,0.00,,,-99.99,,2013-05-08 18:42:00,
2013-05-08 14:52:00,72.0,58.0,-100.00,South,175,7.0,21.0,61,0.00,,,-99.99,,2013-05-08 18:52:00,
2013-05-08 15:02:00,74.0,57.0,-100.00,SSW,200,6.0,14.0,55,0.00,,,-99.99,,2013-05-08 19:02:00,
2013-05-08 15:11:00,74.0,56.0,-100.00,South,190,14.0,26.0,52,0.00,,,-99.99,,2013-05-08 19:11:00,
2013-05-08 15:22:00,73.0,55.0,-100.00,SSW,195,12.0,26.0,53,0.00,,,-99.99,,2013-05-08 19:22:00,
2013-05-08 15:32:00,72.0,56.0,-100.00,South,185,10.0,26.0,57,0.00,,,-99.99,,2013-05-08 19:32:00,
2013-05-08 15:42:00,71.0,56.0,-100.00,SSW,200,6.0,23.0,59,0.00,,,-99.99,,2013-05-08 19:42:00,
2013-05-08 15:52:00,70.0,58.0,-100.00,South,190,9.0,26.0,64,0.00,,,-99.99,,2013-05-08 19:52:00,
2013-05-08 16:02:00,70.0,58.0,-100.00,SSW,195,12.0,24.0,67,0.00,,,-99.99,,2013-05-08 20:02:00,
2013-05-08 16:12:00,70.0,58.0,-100.00,South,180,9.0,19.0,66,0.00,,,-99.99,,2013-05-08 20:12:00,
2013-05-08 16:22:00,70.0,59.0,-100.00,South,180,9.0,17.0,68,0.00,,,-99.99,,2013-05-08 20:22:00,
2013-05-08 16:32:00,68.0,59.0,-100.00,South,180,17.0,28.0,73,0.00,,,-99.99,,2013-05-08 20:32:00,
2013-05-08 16:42:00,65.0,60.0,-100.00,South,185,2.0,24.0,85,0.06,,,-99.99,,2013-05-08 20:42:00,
2013-05-08 16:52:00,64.0,61.0,-100.00,South,190,4.0,13.0,89,0.00,,,-99.99,,2013-05-08 20:52:00,
2013-05-08 17:02:00,64.0,62.0,-100.00,South,175,4.0,10.0,90,0.00,,,-99.99,,2013-05-08 21:02:00,
2013-05-08 17:12:00,64.0,61.0,-100.00,SSW,200,4.0,11.0,91,0.00,,,-99.99,,2013-05-08 21:12:00,
2013-05-08 17:21:00,64.0,62.0,-100.00,South,170,3.0,11.0,91,0.00,,,-99.99,,2013-05-08 21:21:00,
2013-05-08 17:33:00,64.0,62.0,-100.00,East,85,2.0,13.0,91,0.00,,,-99.99,,2013-05-08 21:33:00,
2013-05-08 17:43:00,64.0,62.0,-100.00,South,175,4.0,11.0,91,0.00,,,-99.99,,2013-05-08 21:43:00,
2013-05-08 17:52:00,64.0,62.0,-100.00,SE,135,1.0,9.0,90,0.00,,,-99.99,,2013-05-08 21:52:00,
2013-05-08 18:03:00,64.0,61.0,-100.00,South,180,3.0,9.0,90,0.00,,,-99.99,,2013-05-08 22:03:00,
2013-05-08 18:12:00,64.0,61.0,-100.00,South,190,6.0,12.0,88,0.00,,,-99.99,,2013-05-08 22:12:00,
2013-05-08 18:22:00,64.0,61.0,-100.00,South,190,6.0,12.0,87,0.00,,,-99.99,,2013-05-08 22:22:00,
2013-05-08 18:33:00,64.0,60.0,-100.00,South,190,2.0,11.0,86,0.00,,,-99.99,,2013-05-08 22:33:00,
2013-05-08 18:42:00,64.0,60.0,-100.00,South,185,4.0,9.0,86,0.00,,,-99.99,,2013-05-08 22:42:00,
2013-05-08 18:52:00,64.0,59.0,-100.00,South,185,11.0,17.0,85,0.00,,,-99.99,,2013-05-08 22:52:00,
2013-05-08 19:02:00,63.0,59.0,-100.00,South,190,7.0,14.0,85,0.00,,,-99.99,,2013-05-08 23:02:00,
2013-05-08 19:12:00,63.0,59.0,-100.00,South,180,6.0,12.0,86,0.00,,,-99.99,,2013-05-08 23:12:00,
2013-05-08 19:22:00,63.0,59.0,-100.00,South,175,5.0,11.0,86,0.00,,,-99.99,,2013-05-08 23:22:00,
2013-05-08 19:32:00,62.0,58.0,-100.00,SE,145,4.0,9.0,87,0.00,,,-99.99,,2013-05-08 23:32:00,
2013-05-08 19:42:00,62.0,58.0,-100.00,South,185,4.0,11.0,87,0.00,,,-99.99,,2013-05-08 23:42:00,
2013-05-08 19:52:00,62.0,58.0,-100.00,South,190,4.0,9.0,87,0.00,,,-99.99,,2013-05-08 23:52:00,
2013-05-08 20:02:00,62.0,58.0,-100.00,South,185,4.0,10.0,87,0.00,,,-99.99,,2013-05-09 00:02:00,
2013-05-08 20:12:00,62.0,58.0,-100.00,South,180,3.0,9.0,88,0.00,,,-99.99,,2013-05-09 00:12:00,
2013-05-08 20:21:00,61.0,58.0,-100.00,South,185,4.0,10.0,89,0.00,,,-99.99,,2013-05-09 00:21:00,
2013-05-08 20:32:00,61.0,58.0,-100.00,South,180,2.0,9.0,90,0.00,,,-99.99,,2013-05-09 00:32:00,
2013-05-08 20:42:00,61.0,59.0,-100.00,South,185,3.0,7.0,91,0.00,,,-99.99,,2013-05-09 00:42:00,
2013-05-08 20:52:00,61.0,58.0,-100.00,South,185,2.0,9.0,91,0.00,,,-99.99,,2013-05-09 00:52:00,
2013-05-08 21:01:00,61.0,59.0,-100.00,South,180,4.0,12.0,92,0.00,,,-99.99,,2013-05-09 01:01:00,
2013-05-08 21:12:00,61.0,59.0,-100.00,South,180,2.0,7.0,92,0.00,,,-99.99,,2013-05-09 01:12:00,
2013-05-08 21:22:00,61.0,59.0,-100.00,South,190,5.0,14.0,92,0.00,,,-99.99,,2013-05-09 01:22:00,
2013-05-08 21:32:00,61.0,59.0,-100.00,South,190,4.0,9.0,93,0.00,,,-99.99,,2013-05-09 01:32:00,
2013-05-08 21:42:00,61.0,59.0,-100.00,South,180,4.0,9.0,93,0.00,,,-99.99,,2013-05-09 01:42:00,
2013-05-08 21:52:00,61.0,59.0,-100.00,South,175,2.0,6.0,93,0.00,,,-99.99,,2013-05-09 01:52:00,
2013-05-08 22:02:00,61.0,59.0,-100.00,South,175,2.0,6.0,93,0.00,,,-99.99,,2013-05-09 02:02:00,
2013-05-08 22:12:00,61.0,59.0,-100.00,ESE,120,1.0,5.0,93,0.00,,,-99.99,,2013-05-09 02:12:00,
2013-05-08 22:22:00,61.0,59.0,-100.00,South,185,2.0,7.0,94,0.00,,,-99.99,,2013-05-09 02:22:00,
2013-05-08 22:33:00,61.0,59.0,-100.00,South,175,2.0,9.0,94,0.00,,,-99.99,,2013-05-09 02:33:00,
2013-05-08 22:42:00,61.0,59.0,-100.00,South,175,2.0,9.0,94,0.00,,,-99.99,,2013-05-09 02:42:00,
2013-05-08 23:02:00,61.0,59.0,-100.00,South,190,4.0,7.0,94,0.00,,,-99.99,,2013-05-09 03:02:00,
2013-05-08 23:11:00,61.0,59.0,-100.00,ESE,115,1.0,4.0,94,0.00,,,-99.99,,2013-05-09 03:11:00,
2013-05-08 23:21:00,60.0,59.0,-100.00,South,190,2.0,4.0,94,0.00,,,-99.99,,2013-05-09 03:21:00,
2013-05-08 23:33:00,60.0,59.0,-100.00,ENE,65,1.0,6.0,94,0.00,,,-99.99,,2013-05-09 03:33:00,
2013-05-08 23:43:00,60.0,59.0,-100.00,South,185,4.0,5.0,94,0.00,,,-99.99,,2013-05-09 03:43:00,
2013-05-08 23:53:00,60.0,59.0,-100.00,SE,145,1.0,5.0,94,0.00,,,-99.99,,2013-05-09 03:53:00,